Regional Weather Roundup
Issued by NWS Charleston, SC

Current Version | Previous Version | Graphics & Text | Print | Product List | Glossary On
Versions: 1 2 3 4 5 6 7 8 9 10 11 12 13 14 15 16 17 18 19 20 21 22 23 24 25 26 27 28 29 30 31 32 33 34 35 36 37 38 39 40 41 42 43 44 45 46 47 48 49 50
444
ASUS42 KCHS 062312
RWRCHS

REGIONAL WEATHER ROUNDUP
NATIONAL WEATHER SERVICE CHARLESTON SC
600 PM EST SAT FEB 06 2016

NOTE: "FAIR" INDICATES FEW OR NO CLOUDS BELOW 12,000 FEET WITH NO
SIGNIFICANT WEATHER AND/OR OBSTRUCTIONS TO VISIBILITY.

NOT ALL STATIONS ARE QUALITY CONTROLLED BY THE NATIONAL
WEATHER SERVICE. USE DATA WITH CAUTION...ESPECIALLY
DEWPOINT OBSERVATIONS.

NOTICE: OBSERVATIONS FOR THE SAVANNAH-HILTON HEAD INTERNATIONAL AIRPORT
/KSAV/ HAVE BEEN TEMPORARILY REMOVED DUE TO AN ERRONEOUS TEMPERATURE
SENSOR. THE OBSERVATION WILL BE REINTRODUCED ONCE REPAIRS ARE COMPLETE.

SCZ027-030-031-034>040-042>050-070000-
...SOUTHEAST SOUTH CAROLINA...

CITY           SKY/WX    TMP DP  RH WIND       PRES   REMARKS
N CHARLESTON   LGT RAIN  47  34  60 N13       30.25R
WATERFRONT PRK   N/A     48  41  76 NE12      30.09R
MOUNT PLEASANT CLOUDY    46  41  81 CALM      30.24S
JOHNS ISLAND   CLOUDY    46  39  76 N10       30.24S
PINOPOLIS        N/A     50  34  53 NE8       30.19R
MONCKS CORNER  CLOUDY    45  27  49 N9        30.26R
SUMMERVILLE    CLOUDY    46  34  61 N6        30.27S
BEAUFORT MCAS  CLOUDY    47  35  63 N14       30.23F
BEAUFORT ARPT  CLOUDY    50  32  50 N13       30.22S HAZE
HILTON HEAD IS CLOUDY    48  37  66 N12G20    30.21F
WALTERBORO     CLOUDY    45  36  70 N7        30.26S
ALLENDALE      CLOUDY    41  39  93 CALM      30.27F

...SOUTHERN MIDLANDS AND PEE DEE...

CITY           SKY/WX    TMP DP  RH WIND       PRES   REMARKS
GEORGETOWN     NOT AVBL
KINGSTREE      NOT AVBL
ORANGEBURG     LGT RAIN  43  33  68 NE3       30.27S
BARNWELL       LGT RAIN  43  37  81 CALM      30.28S
AIKEN          MOCLDY    45  27  49 CALM      30.29R
MANNING        CLOUDY    46  28  49 CALM      30.27R
COLUMBIA       CLOUDY    50  24  36 E8        30.26F
SUMTER         CLOUDY    46  30  53 E5        30.25F
FLORENCE       CLOUDY    47  26  44 NE6       30.27F
MYRTLE BEACH   CLOUDY    48  28  46 NE14      30.28F
N MYRTLE BEACH CLOUDY    48  28  46 NE9       30.26F

$$

GAZ063-065-086>088-099>101-113>116-118-119-134>141-150-070000-
...SOUTHEAST GEORGIA...

CITY           SKY/WX    TMP DP  RH WIND       PRES   REMARKS
SAVANNAH ARPT  CLOUDY    45  36  70 N9        30.22F
HUNTER AAF     CLOUDY    47  37  68 N13       30.18F
FORT STEWART   CLOUDY    45  36  69 N9        30.20S
STATESBORO     DRIZZLE   45  36  71 N7        30.24F
SYLVANIA       CLOUDY    42  40  92 NE8       30.26F
CLAXTON        CLOUDY    43  40  90 N6        30.24F

...CSRA...CENTRAL AND FAR SOUTHEAST GEORGIA...

CITY           SKY/WX    TMP DP  RH WIND       PRES   REMARKS
THOMSON        CLOUDY    50  32  50 CALM      30.29F
AUGUSTA-BUSH   CLOUDY    46  30  53 SE5       30.27S
AUGUSTA-DANIEL CLOUDY    47  26  44 SE7       30.26F
SWAINSBORO     CLOUDY    43  36  75 E5        30.25F
VIDALIA        CLOUDY    41  36  81 NE7       30.24F
EASTMAN        CLOUDY    44  32  63 NE5       30.27S
HAZLEHURST     DRIZZLE   43  38  83 N3        30.24S
ALMA           CLOUDY    41  39  93 N6        30.23S FOG
WAYCROSS       CLOUDY    47  41  81 N12       30.21F
JESUP          DRIZZLE   48  39  71 N3        30.22R
BAXLEY         CLOUDY    43  39  87 NE8       30.23S
BRUNSWICK      CLOUDY    48  39  71 N6        30.19S
SAINT SIMONS   CLOUDY    49  39  68 N15G24    30.17S

$$

SCZ027-028-034-036>038-045-046-048>050-GAZ119-141-070000-
...LAKE AND SUPPLEMENTAL COASTAL OBSERVATIONS...

STATION/POSITION TIME  TEMP    WIND        PRES    WAVE   SWELL
                       AIR SEA DIR/SP/G            HT/PER HT/PER/DIR
                 (UTC) (F)     (DEG/KT/KT) (MB)    (FT/S) (FT/S/D)
WINYAH BAY       2145   47      40/  6     1023.0
LAKE MURRAY      2200   51      50/  2/  5 1024.4R
ACE BASIN NERRS  NOT AVBL
FORT PULASKI     2200   47 54              1023.2F
SAPELO ISLAND    2200   49      20/ 16     1022.0S

$$

ANZ835-935-AMZ111-154-330-350-352-354-370-450-454-472-070000-
...C-MAN AND BUOY OBSERVATIONS...

STATION/POSITION TIME  TEMP    WIND        PRES    WAVE   SWELL
                       AIR SEA DIR/SP/G            HT/PER HT/PER/DIR
                 (UTC) (F)     (DEG/KT/KT) (MB)    (FT/S) (FT/S/D)
BUOY 41004       2250   55 64   30/ 23/ 27 1021.3F   7/ 7   3/10
BUOY 41008       2250   51 56   30/ 25/ 31 1020.4F   7/ 7   2/ 80/10
FOLLY BEACH CMAN 2300   47      40/ 13/ 15 1023.9F
CAPERS NEARSHORE 2208   48      50/ 19/ 25 1023.4F
FRIPP NEARSHORE  2200   49      30/ 16/ 17 1022.3F


STATION/POSITION TIME  TEMP    WIND        PRES    WAVE   SWELL
                       AIR SEA DIR/SP/G            HT/PER HT/PER/DIR
                 (UTC) (F)     (DEG/KT/KT) (MB)    (FT/S) (FT/S/D)
5E ST. MARYS GA  2221      57                N/A     7/ 7   2/ 90/11
FRYING PAN BUOY  2200   54 68   10/ 19/ 25 1024.0R
BUOY 41025       2250   52 71   20/ 17/ 21 1024.7F   6/10   5/ 70/10
CAPE LOOKOUT NC  NOT AVBL
BUOY 41002       2250   60 69   70/ 14/ 17   N/A     8/10   7/ 30/10
BUOY 41010       2220   69 75              1018.1F
ST AUGUSTINE FL  2300   55 58  330/ 14/ 17 1019.0F


$$




USA.gov is the U.S. government's official web portal to all federal, state and local government web resources and services.